• In Spain
  • List of Countries
  • For 7 days
  • Water Temperature
  • Satellite Maps
  • Weather Map
  • Weather Widgets
  • user-avatar
    Login

    Hourly Weather Cheremyshevo

    Today, 21 August, Tuesday

    Time Temperature Precipitation Wind Pressure Humidity
    00:00 +17°C° 0.1 mm 2 mps 750 mmHg 91%
    01:00 +17°C° 0 mm 2 mps 750 mmHg 92%
    02:00 +17°C° 0 mm 2 mps 750 mmHg 93%
    03:00 +18°C° 0 mm 1 mps 750 mmHg 93%
    04:00 +18°C° 0 mm 1 mps 750 mmHg 93%
    05:00 +18°C° 0 mm 2 mps 750 mmHg 92%
    06:00 +18°C° 0 mm 2 mps 750 mmHg 91%
    07:00 +19°C° 0.1 mm 2 mps 750 mmHg 86%
    08:00 +21°C° 0.1 mm 2 mps 749 mmHg 81%
    09:00 +22°C° 0.1 mm 3 mps 749 mmHg 76%
    10:00 +24°C° 0.2 mm 3 mps 749 mmHg 72%
    11:00 +25°C° 0.2 mm 3 mps 749 mmHg 68%
    12:00 +26°C° 0.2 mm 4 mps 749 mmHg 64%
    13:00 +26°C° 0.1 mm 4 mps 748 mmHg 63%
    14:00 +26°C° 0.1 mm 5 mps 748 mmHg 61%
    15:00 +27°C° 0.1 mm 5 mps 748 mmHg 60%
    16:00 +26°C° 0.1 mm 5 mps 747 mmHg 65%
    17:00 +25°C° 0.1 mm 4 mps 747 mmHg 69%
    18:00 +23°C° 0.1 mm 4 mps 747 mmHg 74%
    19:00 +22°C° 0 mm 4 mps 746 mmHg 76%
    20:00 +21°C° 0 mm 4 mps 746 mmHg 78%
    21:00 +20°C° 0 mm 5 mps 746 mmHg 80%
    22:00 +20°C° 0 mm 5 mps 745 mmHg 77%
    23:00 +19°C° 0 mm 5 mps 745 mmHg 75%

    Tomorrow, 22 August, Wednesday

    Time Temperature Precipitation Wind Pressure Humidity
    00:00 +19°C° 0 mm 5 mps 745 mmHg 73%
    01:00 +19°C° 0 mm 5 mps 744 mmHg 73%
    02:00 +17°C° 0 mm 5 mps 744 mmHg 73%
    03:00 +17°C° 0 mm 5 mps 744 mmHg 73%
    04:00 +16°C° 0.9 mm 5 mps 744 mmHg 78%
    05:00 +16°C° 0.9 mm 5 mps 744 mmHg 82%
    06:00 +17°C° 0.9 mm 4 mps 744 mmHg 87%
    07:00 +17°C° 1.2 mm 4 mps 744 mmHg 88%
    08:00 +17°C° 1.2 mm 4 mps 744 mmHg 89%
    09:00 +15°C° 1.2 mm 4 mps 745 mmHg 91%
    10:00 +17°C° 0.3 mm 4 mps 745 mmHg 86%
    11:00 +17°C° 0.3 mm 3 mps 745 mmHg 81%
    12:00 +17°C° 0.3 mm 3 mps 745 mmHg 77%
    13:00 +18°C° 0.1 mm 3 mps 746 mmHg 71%
    14:00 +19°C° 0.1 mm 4 mps 746 mmHg 64%
    15:00 +20°C° 0.1 mm 4 mps 746 mmHg 58%
    16:00 +19°C° 0.3 mm 4 mps 746 mmHg 64%
    17:00 +18°C° 0.3 mm 4 mps 747 mmHg 70%
    18:00 +17°C° 0.3 mm 3 mps 747 mmHg 76%
    19:00 +15°C° 0.2 mm 4 mps 747 mmHg 80%
    20:00 +13°C° 0.2 mm 4 mps 748 mmHg 83%
    21:00 +12°C° 0.2 mm 4 mps 748 mmHg 87%
    22:00 +12°C° 0.1 mm 4 mps 749 mmHg 88%
    23:00 +11°C° 0.1 mm 4 mps 749 mmHg 89%

    Day after tomorrow, 23 August, Thursday

    Time Temperature Precipitation Wind Pressure Humidity
    00:00 +10°C° 0.1 mm 4 mps 749 mmHg 90%
    01:00 +10°C° 0 mm 4 mps 750 mmHg 91%
    02:00 +10°C° 0 mm 4 mps 750 mmHg 92%
    03:00 +8°C° 0 mm 4 mps 750 mmHg 93%
    04:00 +8°C° 0 mm 4 mps 751 mmHg 92%
    05:00 +8°C° 0 mm 4 mps 751 mmHg 91%
    06:00 +9°C° 0 mm 5 mps 752 mmHg 91%
    07:00 +10°C° 0 mm 5 mps 752 mmHg 83%
    08:00 +11°C° 0 mm 6 mps 753 mmHg 76%
    09:00 +13°C° 0 mm 6 mps 753 mmHg 68%
    10:00 +14°C° 0 mm 6 mps 753 mmHg 63%
    11:00 +15°C° 0 mm 6 mps 753 mmHg 59%
    12:00 +16°C° 0 mm 6 mps 753 mmHg 54%
    13:00 +16°C° 0 mm 6 mps 753 mmHg 55%
    14:00 +16°C° 0 mm 6 mps 753 mmHg 55%
    15:00 +16°C° 0 mm 6 mps 754 mmHg 55%
    16:00 +16°C° 0 mm 5 mps 754 mmHg 59%
    17:00 +15°C° 0 mm 4 mps 754 mmHg 63%
    18:00 +14°C° 0 mm 3 mps 754 mmHg 66%
    19:00 +13°C° 0 mm 3 mps 754 mmHg 68%
    20:00 +12°C° 0 mm 3 mps 754 mmHg 69%
    21:00 +11°C° 0 mm 3 mps 755 mmHg 71%
    22:00 +11°C° 0 mm 3 mps 755 mmHg 72%
    23:00 +10°C° 0 mm 3 mps 755 mmHg 72%

    24 August, Friday

    Time Temperature Precipitation Wind Pressure Humidity
    00:00 +10°C° 0 mm 3 mps 755 mmHg 73%
    01:00 +10°C° 0 mm 3 mps 755 mmHg 72%
    02:00 +11°C° 0 mm 3 mps 755 mmHg 72%
    03:00 +11°C° 0 mm 4 mps 755 mmHg 71%
    04:00 +11°C° 0.3 mm 3 mps 755 mmHg 76%
    05:00 +11°C° 0.3 mm 3 mps 755 mmHg 80%
    06:00 +11°C° 0.3 mm 3 mps 755 mmHg 84%
    07:00 +11°C° 0.4 mm 3 mps 755 mmHg 85%
    08:00 +12°C° 0.4 mm 4 mps 755 mmHg 86%
    09:00 +12°C° 0.4 mm 4 mps 755 mmHg 87%
    10:00 +13°C° 0 mm 4 mps 754 mmHg 85%
    11:00 +14°C° 0 mm 4 mps 754 mmHg 83%
    12:00 +15°C° 0 mm 5 mps 754 mmHg 81%
    13:00 +16°C° 0 mm 5 mps 754 mmHg 78%
    14:00 +17°C° 0 mm 5 mps 754 mmHg 75%
    15:00 +19°C° 0 mm 5 mps 754 mmHg 71%
    16:00 +19°C° 0 mm 4 mps 754 mmHg 75%
    17:00 +18°C° 0 mm 3 mps 754 mmHg 78%
    18:00 +18°C° 0 mm 2 mps 754 mmHg 82%
    19:00 +17°C° 0 mm 2 mps 754 mmHg 85%
    20:00 +16°C° 0 mm 2 mps 755 mmHg 87%
    21:00 +15°C° 0 mm 2 mps 755 mmHg 90%
    22:00 +15°C° 0 mm 1 mps 755 mmHg 90%
    23:00 +15°C° 0 mm 1 mps 755 mmHg 91%

    25 August, Saturday

    Time Temperature Precipitation Wind Pressure Humidity
    00:00 +14°C° 0 mm 1 mps 756 mmHg 92%
    01:00 +14°C° 0 mm 1 mps 756 mmHg 92%
    02:00 +14°C° 0 mm 1 mps 756 mmHg 93%
    03:00 +13°C° 0 mm 1 mps 756 mmHg 93%
    04:00 +14°C° 0 mm 1 mps 756 mmHg 93%
    05:00 +14°C° 0 mm 1 mps 756 mmHg 92%
    06:00 +14°C° 0 mm 1 mps 757 mmHg 91%
    07:00 +16°C° 0 mm 1 mps 757 mmHg 85%
    08:00 +19°C° 0 mm 1 mps 757 mmHg 79%
    09:00 +20°C° 0 mm 1 mps 757 mmHg 73%
    10:00 +21°C° 0 mm 1 mps 757 mmHg 70%
    11:00 +23°C° 0 mm 2 mps 757 mmHg 66%
    12:00 +24°C° 0 mm 2 mps 757 mmHg 63%
    13:00 +24°C° 0 mm 2 mps 757 mmHg 62%
    14:00 +24°C° 0 mm 2 mps 757 mmHg 61%
    15:00 +25°C° 0 mm 2 mps 756 mmHg 61%
    16:00 +24°C° 0 mm 1 mps 756 mmHg 65%
    17:00 +23°C° 0 mm 1 mps 756 mmHg 69%
    18:00 +20°C° 0 mm 0 mps 756 mmHg 73%
    19:00 +19°C° 0 mm 0 mps 756 mmHg 76%
    20:00 +18°C° 0 mm 0 mps 757 mmHg 80%
    21:00 +16°C° 0 mm 0 mps 757 mmHg 83%
    22:00 +16°C° 0 mm 0 mps 757 mmHg 84%
    23:00 +16°C° 0 mm 0 mps 757 mmHg 85%

    26 August, Sunday

    Time Temperature Precipitation Wind Pressure Humidity
    00:00 +15°C° 0 mm 0 mps 757 mmHg 85%
    01:00 +16°C° 0 mm 1 mps 757 mmHg 86%
    02:00 +16°C° 0 mm 1 mps 757 mmHg 86%
    03:00 +16°C° 0 mm 1 mps 757 mmHg 87%
    04:00 +16°C° 0 mm 1 mps 758 mmHg 87%
    05:00 +16°C° 0 mm 1 mps 758 mmHg 87%
    06:00 +16°C° 0 mm 1 mps 758 mmHg 87%
    07:00 +19°C° 0 mm 1 mps 758 mmHg 81%
    08:00 +21°C° 0 mm 1 mps 758 mmHg 76%
    09:00 +23°C° 0 mm 1 mps 758 mmHg 70%
    10:00 +24°C° 0 mm 1 mps 758 mmHg 66%
    11:00 +25°C° 0 mm 1 mps 758 mmHg 62%
    12:00 +26°C° 0 mm 1 mps 758 mmHg 57%
    13:00 +26°C° 0 mm 2 mps 757 mmHg 56%
    14:00 +26°C° 0 mm 2 mps 757 mmHg 55%
    15:00 +26°C° 0 mm 2 mps 757 mmHg 54%
    16:00 +25°C° 0 mm 2 mps 757 mmHg 60%
    17:00 +24°C° 0 mm 2 mps 757 mmHg 65%
    18:00 +23°C° 0 mm 2 mps 757 mmHg 70%
    19:00 +21°C° 0 mm 2 mps 757 mmHg 73%
    20:00 +20°C° 0 mm 2 mps 757 mmHg 76%
    21:00 +18°C° 0 mm 2 mps 757 mmHg 80%
    22:00 +18°C° 0 mm 2 mps 757 mmHg 81%
    23:00 +18°C° 0 mm 2 mps 757 mmHg 83%
    Show more